WP4PW Weather Reports


time (UTC)temp
C
wind
direction
speed
KPH
gust
KPH
rain 1hr
cm
rain 24hr
cm
rain mn
cm
humidity
%
barometer
mb
20260507210038 28 187 3.2 6.4 0.00 0.00 0.00 82 1019.3
20260507205535 28 67 3.2 4.8 0.00 0.00 0.00 82 1019.0
20260507205031 28 138 3.2 12.9 0.00 0.00 0.00 83 1019.3
20260507204527 28 112 3.2 14.5 0.00 0.00 0.00 82 1019.3
20260507204025 28 107 1.6 6.4 0.00 0.00 0.00 82 1019.1
20260507203523 28 90 3.2 14.5 0.00 0.00 0.00 83 1019.3
20260507203020 28 57 6.4 11.3 0.00 0.00 0.00 83 1019.3
20260507202515 28 89 8.0 9.7 0.00 0.00 0.00 83 1019.3
20260507202012 28 149 4.8 9.7 0.00 0.00 0.00 83 1019.4
20260507201508 28 108 1.6 12.9 0.00 0.00 0.00 83 1019.5
20260507201004 29 171 9.7 12.9 0.00 0.00 0.00 82 1019.6
20260507200459 29 76 8.0 12.9 0.00 0.00 0.00 80 1019.5
20260507195955 29 109 1.6 16.1 0.00 0.00 0.00 79 1019.6
20260507195453 28 110 6.4 11.3 0.00 0.00 0.00 79 1019.6
20260507194950 28 89 4.8 12.9 0.00 0.00 0.00 81 1019.7
20260507194447 28 104 9.7 17.7 0.00 0.00 0.00 80 1019.7
20260507193942 28 90 6.4 11.3 0.00 0.00 0.00 81 1019.9
20260507193440 29 55 8.0 14.5 0.00 0.00 0.00 80 1019.8
20260507192937 30 116 3.2 16.1 0.00 0.00 0.00 80 1020.0
20260507192433 30 108 9.7 12.9 0.00 0.00 0.00 79 1019.8
20260507191930 29 82 6.4 16.1 0.00 0.00 0.00 79 1019.8
20260507191426 30 85 9.7 12.9 0.00 0.00 0.00 78 1020.0
20260507190922 29 97 14.5 20.9 0.00 0.00 0.00 80 1020.2
20260507190420 30 153 11.3 16.1 0.00 0.00 0.00 79 1020.1
20260507185919 30 65 4.8 14.5 0.00 0.00 0.00 79 1020.0
20260507185416 30 126 8.0 11.3 0.00 0.00 0.00 77 1020.2
20260507184913 30 75 6.4 20.9 0.00 0.00 0.00 79 1020.1
20260507184410 30 81 6.4 14.5 0.00 0.00 0.00 78 1020.0
20260507183908 31 133 1.6 9.7 0.00 0.00 0.00 74 1020.0
20260507183404 30 53 3.2 11.3 0.00 0.00 0.00 78 1020.0
20260507182902 31 120 6.4 14.5 0.00 0.00 0.00 76 1020.2
20260507182357 30 119 9.7 17.7 0.00 0.00 0.00 78 1020.0
20260507181854 30 80 3.2 14.5 0.00 0.00 0.00 78 1020.3
20260507181350 30 98 6.4 12.9 0.00 0.00 0.00 76 1020.3
20260507180847 30 118 3.2 12.9 0.00 0.00 0.00 78 1020.4
20260507180344 30 160 9.7 11.3 0.00 0.00 0.00 77 1020.5
20260507175839 30 15 3.2 9.7 0.00 0.00 0.00 76 1020.6
20260507175337 30 69 14.5 16.1 0.00 0.00 0.00 78 1020.6
20260507174834 30 17 3.2 9.7 0.00 0.00 0.00 76 1020.7
20260507174331 31 145 6.4 16.1 0.00 0.00 0.00 76 1020.5
20260507173829 30 58 3.2 16.1 0.00 0.00 0.00 78 1021.0
20260507173326 30 130 14.5 22.5 0.00 0.00 0.00 80 1020.9
20260507172822 30 99 9.7 16.1 0.00 0.00 0.00 78 1021.0
20260507172319 30 46 6.4 20.9 0.00 0.00 0.00 79 1020.9
20260507171815 30 78 3.2 14.5 0.00 0.00 0.00 79 1021.0
20260507171312 30 164 6.4 16.1 0.00 0.00 0.00 77 1021.0
20260507170809 30 112 4.8 14.5 0.00 0.00 0.00 77 1021.2
20260507170305 30 88 11.3 14.5 0.00 0.00 0.00 76 1021.3
20260507165801 30 139 8.0 14.5 0.00 0.00 0.00 79 1021.4
20260507165257 30 44 8.0 14.5 0.00 0.00 0.00 76 1021.3
20260507164753 30 348 8.0 12.9 0.00 0.00 0.00 77 1021.3
20260507164251 30 56 6.4 14.5 0.00 0.00 0.00 77 1021.7
20260507163748 29 51 4.8 12.9 0.00 0.00 0.00 79 1021.5
20260507163246 30 63 8.0 14.5 0.00 0.00 0.00 77 1021.8
20260507162741 30 114 11.3 14.5 0.00 0.00 0.00 79 1021.8
20260507162237 30 98 9.7 12.9 0.00 0.00 0.00 77 1021.9
20260507161734 30 91 8.0 12.9 0.00 0.00 0.00 76 1021.7
20260507161231 30 70 3.2 9.7 0.00 0.00 0.00 74 1021.9
20260507160726 30 73 11.3 16.1 0.00 0.00 0.00 74 1022.0
20260507160223 29 51 11.3 16.1 0.00 0.00 0.00 77 1022.0
20260507155719 30 60 6.4 16.1 0.00 0.00 0.00 79 1021.9
20260507155215 30 81 9.7 12.9 0.00 0.00 0.00 79 1021.9
20260507154712 30 131 8.0 14.5 0.00 0.00 0.00 76 1022.1
20260507154210 30 104 9.7 16.1 0.00 0.00 0.00 77 1022.1
20260507153707 30 150 6.4 16.1 0.00 0.00 0.00 77 1022.2
20260507153203 30 111 4.8 16.1 0.00 0.00 0.00 79 1022.3
20260507152659 30 102 8.0 20.9 0.00 0.00 0.00 79 1022.1
20260507152155 30 96 3.2 11.3 0.00 0.00 0.00 77 1022.3
20260507151651 29 106 9.7 14.5 0.00 0.00 0.00 78 1022.2
20260507151148 30 103 12.9 16.1 0.00 0.00 0.00 76 1022.2
20260507150646 30 139 9.7 20.9 0.00 0.00 0.00 79 1022.2
20260507150142 30 120 6.4 9.7 0.00 0.00 0.00 78 1022.1
20260507145637 30 118 4.8 17.7 0.00 0.00 0.00 79 1022.3
20260507145135 30 65 9.7 11.3 0.00 0.00 0.00 78 1022.1
20260507144631 30 33 6.4 12.9 0.00 0.00 0.00 77 1022.0
20260507144130 29 98 6.4 16.1 0.00 0.00 0.00 78 1022.0
20260507143626 30 109 4.8 12.9 0.00 0.00 0.00 78 1022.0
20260507143123 30 68 14.5 17.7 0.00 0.00 0.00 77 1022.2
20260507142619 29 56 8.0 20.9 0.00 0.00 0.00 79 1022.4
20260507142116 30 128 9.7 12.9 0.00 0.00 0.00 79 1022.3
20260507141612 29 73 8.0 16.1 0.00 0.00 0.00 80 1022.5
20260507141109 29 130 6.4 22.5 0.00 0.00 0.00 79 1022.4
20260507140605 30 104 3.2 11.3 0.00 0.00 0.00 77 1022.3
20260507135600 29 70 8.0 12.9 0.00 0.00 0.00 78 1022.6
20260507135051 29 123 12.9 16.1 0.00 0.00 0.00 78 1022.4
20260507134548 30 89 6.4 14.5 0.00 0.00 0.00 77 1022.4
20260507134043 30 84 17.7 22.5 0.00 0.00 0.00 77 1022.2
20260507133540 30 84 8.0 14.5 0.00 0.00 0.00 77 1022.2
20260507133038 29 74 1.6 11.3 0.00 0.00 0.00 76 1022.1
20260507132534 30 65 11.3 14.5 0.00 0.00 0.00 76 1022.1
20260507132031 29 94 9.7 17.7 0.00 0.00 0.00 79 1021.8
20260507131527 29 105 8.0 12.9 0.00 0.00 0.00 78 1021.9
20260507131025 28 62 4.8 14.5 0.00 0.00 0.00 80 1022.0
20260507130522 29 66 8.0 12.9 0.00 0.00 0.00 79 1021.9
20260507130020 29 93 9.7 17.7 0.00 0.00 0.00 80 1021.8
20260507125518 28 107 4.8 9.7 0.00 0.00 0.00 80 1021.8
20260507125015 29 87 8.0 16.1 0.00 0.00 0.00 81 1021.8
20260507124511 29 90 4.8 9.7 0.00 0.00 0.00 80 1021.7
20260507124009 28 159 8.0 14.5 0.00 0.00 0.00 81 1021.9
20260507123508 29 126 6.4 17.7 0.00 0.00 0.00 78 1021.6
20260507123004 28 81 6.4 9.7 0.00 0.00 0.00 80 1021.6
20260507122459 28 334 3.2 14.5 0.00 0.00 0.00 80 1021.5
20260507121955 28 122 6.4 12.9 0.00 0.00 0.00 81 1021.5
20260507121450 28 116 6.4 14.5 0.00 0.00 0.00 81 1021.4
20260507120947 28 61 3.2 12.9 0.00 0.00 0.00 85 1021.3
20260507120443 28 120 6.4 9.7 0.00 0.00 0.00 83 1021.3
20260507115941 28 85 4.8 9.7 0.00 0.00 0.00 84 1021.4
20260507115436 28 112 3.2 12.9 0.00 0.00 0.00 82 1021.2
20260507114932 28 83 6.4 11.3 0.00 0.00 0.00 81 1021.1
20260507114428 28 129 11.3 16.1 0.00 0.00 0.00 83 1021.2
20260507113926 28 80 4.8 16.1 0.00 0.00 0.00 82 1021.2
20260507113423 27 147 3.2 12.9 0.00 0.00 0.00 83 1020.8
20260507112920 28 132 4.8 12.9 0.00 0.00 0.00 82 1020.7
20260507112417 28 101 1.6 6.4 0.00 0.00 0.00 83 1020.6
20260507111915 27 114 4.8 9.7 0.00 0.00 0.00 83 1020.7
20260507111412 27 119 4.8 11.3 0.00 0.00 0.00 86 1020.6
20260507110908 27 120 0.0 11.3 0.00 0.00 0.00 87 1020.6
20260507110404 27 68 3.2 11.3 0.00 0.00 0.00 87 1020.6
20260507105901 27 68 3.2 16.1 0.00 0.00 0.00 89 1020.7
20260507105358 27 99 4.8 11.3 0.00 0.00 0.00 88 1020.6
20260507104854 27 97 4.8 6.4 0.00 0.00 0.00 89 1020.6
20260507104351 27 68 1.6 9.7 0.00 0.00 0.00 88 1020.4
20260507103847 27 54 4.8 11.3 0.00 0.00 0.00 89 1020.7
20260507103344 26 115 3.2 4.8 0.00 0.00 0.00 89 1020.7
20260507102841 26 67 3.2 11.3 0.00 0.00 0.00 90 1020.7
20260507102337 26 110 1.6 3.2 0.00 0.00 0.00 91 1020.6
20260507101834 26 113 1.6 1.6 0.00 0.00 0.00 91 1020.5
20260507101333 26 68 0.0 1.6 0.00 0.00 0.00 91 1020.5
20260507100831 26 100 1.6 1.6 0.00 0.00 0.00 92 1020.4
20260507100329 26 109 1.6 3.2 0.00 0.00 0.00 92 1020.3
20260507095827 26 129 3.2 4.8 0.00 0.00 0.00 92 1020.4
20260507095323 26 93 3.2 4.8 0.00 0.00 0.00 91 1020.4
20260507094820 26 122 4.8 6.4 0.00 0.00 0.00 91 1020.1
20260507094316 26 98 0.0 6.4 0.00 0.00 0.00 92 1020.5
20260507093814 26 94 3.2 4.8 0.00 0.00 0.00 91 1020.4
20260507093312 26 104 3.2 4.8 0.00 0.00 0.00 91 1020.3
20260507092809 26 111 0.0 3.2 0.00 0.00 0.00 91 1020.4
20260507092307 26 105 0.0 3.2 0.00 0.00 0.00 90 1020.4
20260507091802 26 121 3.2 4.8 0.00 0.00 0.00 90 1020.4
20260507091300 26 112 0.0 1.6 0.00 0.00 0.00 90 1020.3
20260507090800 26 102 0.0 3.2 0.00 0.00 0.00 89 1020.3
20260507090257 26 100 4.8 9.7 0.00 0.00 0.00 89 1020.4
20260507085754 26 113 0.0 1.6 0.00 0.00 0.00 89 1020.5
20260507085250 26 86 3.2 9.7 0.00 0.00 0.00 89 1020.3
20260507084748 26 108 3.2 9.7 0.00 0.00 0.00 90 1020.3
20260507084244 26 111 3.2 11.3 0.00 0.00 0.00 89 1020.4
20260507083742 26 53 1.6 6.4 0.00 0.00 0.00 90 1020.3
20260507083238 26 135 3.2 3.2 0.00 0.00 0.00 90 1020.3
20260507082734 26 118 1.6 6.4 0.00 0.00 0.00 90 1020.3
20260507082230 26 148 1.6 4.8 0.00 0.00 0.00 90 1020.2
20260507081727 26 88 4.8 6.4 0.00 0.00 0.00 90 1020.4
20260507081223 26 106 3.2 4.8 0.00 0.00 0.00 89 1020.3
20260507080720 26 99 3.2 4.8 0.00 0.00 0.00 89 1020.2
20260507080216 26 66 6.4 11.3 0.00 0.00 0.00 89 1020.4
20260507075711 26 82 1.6 4.8 0.00 0.00 0.00 90 1020.4
20260507075208 26 98 0.0 4.8 0.00 0.00 0.00 90 1020.3
20260507074704 26 114 1.6 3.2 0.00 0.00 0.00 90 1020.4
20260507074203 26 103 3.2 3.2 0.00 0.00 0.00 90 1020.3
20260507073659 26 99 0.0 3.2 0.00 0.00 0.00 90 1020.2
20260507073155 26 114 1.6 4.8 0.00 0.00 0.00 90 1020.3
20260507072653 26 97 0.0 0.0 0.00 0.00 0.00 90 1020.4
20260507072150 26 97 0.0 1.6 0.00 0.00 0.00 90 1020.5
20260507071648 26 133 0.0 3.2 0.00 0.00 0.00 90 1020.4
20260507071144 26 109 0.0 1.6 0.00 0.00 0.00 89 1020.4
20260507070641 26 103 0.0 6.4 0.00 0.00 0.00 89 1020.4
20260507070138 26 114 1.6 4.8 0.00 0.00 0.00 89 1020.4
20260507065634 26 133 1.6 1.6 0.00 0.00 0.00 89 1020.6
20260507065131 26 131 1.6 4.8 0.00 0.00 0.00 89 1020.6
20260507064629 26 119 0.0 3.2 0.00 0.00 0.00 89 1020.6
20260507064128 26 109 1.6 4.8 0.00 0.00 0.00 89 1020.8
20260507063625 26 130 4.8 6.4 0.00 0.00 0.00 88 1020.7
20260507063121 26 97 1.6 3.2 0.00 0.00 0.00 88 1020.8
20260507062618 26 129 3.2 3.2 0.00 0.00 0.00 88 1020.9
20260507062116 26 116 0.0 4.8 0.00 0.00 0.00 89 1021.1
20260507061613 26 101 0.0 1.6 0.00 0.00 0.00 89 1020.9
20260507061111 26 120 1.6 3.2 0.00 0.00 0.00 90 1021.1
20260507060609 26 109 1.6 4.8 0.00 0.00 0.00 90 1021.1
20260507060105 26 110 3.2 3.2 0.00 0.00 0.00 90 1021.0
20260507055601 26 126 0.0 3.2 0.00 0.00 0.00 90 1021.1
20260507055057 26 118 0.0 3.2 0.00 0.00 0.00 90 1021.5
20260507054553 26 101 0.0 3.2 0.00 0.00 0.00 90 1021.3
20260507054050 26 105 0.0 3.2 0.00 0.00 0.00 90 1021.2
20260507053548 26 135 1.6 4.8 0.00 0.00 0.00 90 1021.5
20260507053047 26 124 3.2 4.8 0.00 0.00 0.00 90 1021.4
20260507052544 26 113 1.6 4.8 0.00 0.00 0.00 90 1021.6
20260507052040 26 95 3.2 4.8 0.00 0.00 0.00 90 1021.8
20260507051538 26 130 3.2 4.8 0.00 0.00 0.00 90 1021.8
20260507051035 26 95 3.2 3.2 0.00 0.00 0.00 90 1021.8
20260507050531 26 121 0.0 3.2 0.00 0.00 0.00 90 1022.1
20260507050028 26 92 1.6 4.8 0.00 0.00 0.00 90 1022.0
20260507045524 26 89 1.6 3.2 0.00 0.00 0.00 89 1022.1
20260507045022 26 62 1.6 4.8 0.00 0.00 0.00 89 1022.3
20260507044518 26 134 1.6 1.6 0.00 0.00 0.00 89 1022.2
20260507044015 26 108 4.8 4.8 0.00 0.00 0.00 89 1022.4
20260507043511 26 148 1.6 4.8 0.00 0.00 0.00 88 1022.3
20260507043009 26 111 1.6 9.7 0.00 0.00 0.00 88 1022.5
20260507042504 26 92 1.6 6.4 0.00 0.00 0.00 87 1022.5
20260507042000 27 70 1.6 6.4 0.00 0.00 0.00 87 1022.4
20260507041457 27 90 1.6 11.3 0.00 0.00 0.00 87 1022.6
20260507040954 27 82 4.8 9.7 0.00 0.00 0.00 86 1022.5
20260507040450 27 106 3.2 9.7 0.00 0.00 0.00 86 1022.5
20260507035946 27 97 0.0 4.8 0.00 0.00 0.00 86 1022.5
20260507035443 27 104 3.2 4.8 0.00 0.00 0.00 86 1022.6
20260507034939 27 104 6.4 9.7 0.00 0.00 0.00 86 1022.9
20260507034436 27 101 3.2 11.3 0.00 0.00 0.00 86 1023.0
20260507033935 27 88 4.8 9.7 0.00 0.00 0.00 86 1022.9
20260507033432 27 92 6.4 6.4 0.00 0.00 0.00 86 1023.0
20260507032929 27 94 3.2 11.3 0.00 0.00 0.00 86 1023.0
20260507032426 27 55 4.8 9.7 0.00 0.00 0.00 86 1022.8
20260507031921 27 88 1.6 9.7 0.00 0.00 0.00 86 1022.9
20260507031418 27 68 8.0 12.9 0.00 0.00 0.00 86 1022.9
20260507030915 27 83 1.6 6.4 0.00 0.00 0.00 86 1022.8
20260507030413 27 125 1.6 11.3 0.00 0.00 0.00 87 1022.9
20260507025909 27 28 6.4 12.9 0.00 0.00 0.00 87 1022.8
20260507025407 27 103 6.4 9.7 0.00 0.00 0.00 87 1022.8
20260507024905 27 80 6.4 11.3 0.00 0.00 0.00 87 1022.8
20260507024402 27 123 4.8 11.3 0.00 0.00 0.00 86 1022.8
20260507023857 27 56 3.2 12.9 0.00 0.00 0.00 87 1022.7
20260507023354 27 91 3.2 12.9 0.00 0.00 0.00 86 1022.8
20260507022852 27 100 3.2 12.9 0.00 0.00 0.00 86 1023.0
20260507022348 27 72 4.8 12.9 0.00 0.00 0.00 87 1022.9
20260507021844 27 109 8.0 12.9 0.00 0.00 0.00 86 1022.8
20260507021339 27 108 3.2 4.8 0.00 0.00 0.00 86 1022.7
20260507020838 27 322 1.6 11.3 0.00 0.00 0.00 87 1022.7
20260507020334 27 77 4.8 9.7 0.00 0.00 0.00 87 1022.9
20260507015831 27 61 6.4 9.7 0.00 0.00 0.00 87 1022.7
20260507015329 27 135 3.2 9.7 0.00 0.00 0.00 87 1022.8
20260507014826 27 115 3.2 4.8 0.00 0.00 0.00 87 1022.7
20260507014322 27 115 3.2 14.5 0.00 0.00 0.00 87 1022.5
20260507013818 27 113 4.8 6.4 0.00 0.00 0.00 88 1022.5
20260507013316 27 123 3.2 9.7 0.00 0.00 0.00 88 1022.5
20260507012813 27 85 6.4 14.5 0.00 0.00 0.00 88 1022.4
20260507012308 27 56 8.0 9.7 0.00 0.00 0.00 88 1022.4
20260507011806 27 85 3.2 6.4 0.00 0.00 0.00 88 1022.2
20260507011302 27 87 6.4 9.7 0.00 0.00 0.00 88 1022.1
20260507010801 27 109 6.4 6.4 0.00 0.00 0.00 88 1022.2
20260507010258 27 59 4.8 9.7 0.00 0.00 0.00 88 1022.0
20260507005755 27 90 3.2 9.7 0.00 0.00 0.00 89 1021.9
20260507005251 27 103 3.2 11.3 0.00 0.00 0.00 89 1021.9
20260507004748 27 64 3.2 4.8 0.00 0.00 0.00 88 1021.9
20260507004246 27 141 3.2 12.9 0.00 0.00 0.00 88 1022.0
20260507003742 27 122 8.0 11.3 0.00 0.00 0.00 88 1021.8
20260507003237 27 108 6.4 11.3 0.00 0.00 0.00 89 1021.7
20260507002734 27 99 4.8 9.7 0.00 0.00 0.00 88 1022.0
20260507002230 27 105 4.8 4.8 0.00 0.00 0.00 88 1021.8
20260507001727 27 132 3.2 4.8 0.00 0.00 0.00 88 1021.6
20260507001224 27 87 3.2 9.7 0.00 0.00 0.00 88 1021.6
20260507000720 27 98 4.8 6.4 0.00 0.00 0.00 89 1021.5
20260507000216 27 101 4.8 9.7 0.00 0.00 0.00 88 1021.7
20260506235713 27 156 3.2 6.4 0.00 0.00 0.00 88 1021.3
20260506235208 27 122 8.0 11.3 0.00 0.00 0.00 88 1021.4
20260506234706 27 70 1.6 12.9 0.00 0.00 0.00 88 1021.3
20260506234203 27 121 3.2 9.7 0.00 0.00 0.00 88 1021.1
20260506233700 27 93 3.2 6.4 0.00 0.00 0.00 88 1021.1
20260506233157 27 113 3.2 6.4 0.00 0.00 0.00 88 1021.0
20260506232653 27 118 3.2 9.7 0.00 0.00 0.00 88 1021.1
20260506232148 27 84 3.2 4.8 0.00 0.00 0.00 88 1020.9
20260506231646 27 59 4.8 6.4 0.00 0.00 0.00 88 1020.9
20260506231144 27 140 1.6 9.7 0.00 0.00 0.00 88 1021.0
20260506230641 27 70 1.6 12.9 0.00 0.00 0.00 88 1020.9
20260506230137 27 103 6.4 11.3 0.00 0.00 0.00 88 1020.9
20260506225634 27 120 3.2 11.3 0.00 0.00 0.00 88 1020.9
20260506225131 27 148 3.2 9.7 0.00 0.00 0.00 88 1020.7
20260506224627 27 99 3.2 12.9 0.00 0.00 0.00 88 1020.6
20260506224124 27 47 3.2 9.7 0.00 0.00 0.00 87 1020.7
20260506223620 27 82 4.8 11.3 0.00 0.00 0.00 87 1020.6
20260506223116 27 117 3.2 9.7 0.00 0.00 0.00 87 1020.5
20260506222614 27 111 9.7 12.9 0.00 0.00 0.00 87 1020.5
20260506222110 27 110 4.8 11.3 0.00 0.00 0.00 87 1020.6
20260506221608 27 113 8.0 12.9 0.00 0.00 0.00 87 1020.3
20260506221106 27 86 6.4 11.3 0.00 0.00 0.00 87 1020.3
20260506220601 27 121 8.0 14.5 0.00 0.00 0.00 86 1020.3
20260506220057 28 111 3.2 11.3 0.00 0.00 0.00 86 1020.3
20260506215554 28 101 4.8 9.7 0.00 0.00 0.00 85 1020.4
20260506215049 28 132 3.2 12.9 0.00 0.00 0.00 84 1020.4
20260506214546 28 45 6.4 11.3 0.00 0.00 0.00 84 1020.2
20260506214044 28 115 3.2 6.4 0.00 0.00 0.00 84 1020.4
20260506213542 28 123 3.2 12.9 0.00 0.00 0.00 84 1020.3
20260506213039 28 139 4.8 16.1 0.00 0.00 0.00 84 1020.2
20260506212535 28 137 6.4 12.9 0.00 0.00 0.00 84 1020.3
20260506212030 28 110 6.4 17.7 0.00 0.00 0.00 83 1020.3
20260506211526 28 125 12.9 22.5 0.00 0.00 0.00 83 1020.2
20260506211024 29 134 9.7 16.1 0.00 0.00 0.00 83 1020.1
20260506210520 28 115 3.2 17.7 0.00 0.00 0.00 84 1019.9